Погода в Ханье

Греция     35°30′48″N   24°01′10″E
темп.,
°C
ветер,
м/с
пор.,
м/с
влажн.,
%
обл.,
%
осадки,
мм/ч
давл.,
гПа
погр.,
м
28 ноября, вс
вс2823:00+18юз610681 0.1 1011359
02:00+17юз711735 0.1 1011516
05:00+16юз57785 0.0 1012346
08:00+16ююз45685 0.0 1013193
11:00+21юз2440100 0.0 1013429
14:00+20всв2348100 0.0 1012309
17:00+19ю2354100 0.0 101162
20:00+20ю465184 0.0 1010166
29 ноября, пн
пн2923:00+21ю7145150 0.0 1008584
02:00+21ю7164881 0.0 1007587
05:00+20юз6956100 0.0 1007237
08:00+19зюз5771100 0.0 1009155
11:00+20зюз5855100 0.0 1010439
14:00+20зюз7106199 0.0 10091049
17:00+17зюз81269100 0.1 10111235
20:00+16юз61065100 0.2 10131095
30 ноября, вт
вт3023:00+15зюз711638 0.1 10141201
02:00+14юз7116315 0.1 1013970
05:00+14юз8146711 0.1 10121232
08:00+14зюз91471100 0.8 10131536
11:00+15зюз11186013 0.3 10151943
14:00+16зюз11174812 0.4 10152250
17:00+14з9146079 0.1 10161932
20:00+13зюз8136338 0.3 10171831
1 декабря, ср
ср123:00+13зсз10156182 0.1 10191984
02:00+12з9126297 0.5 10191768
05:00+12зсз9135671 0.4 10191871
08:00+12зсз7105623 0.4 10201426
11:00+13зсз56443 0.0 10211403
14:00+14зсз67512 0.0 10201208
17:00+12з58631 0.0 1020902
20:00+12зюз68700 0.0 1020650
2 декабря, чт
чт223:00+11зюз57701 0.0 1021592
02:00+11зюз56700 0.0 1020519
05:00+11юз46690 0.0 1019480
08:00+11юз35660 0.0 1019445
11:00+15з45559 0.0 10191164
14:00+17зюз57503 0.0 10181378
17:00+15юз34624 0.0 1017451
20:00+14юз227371 0.1 1018137